EW3845 Weather Reports


time (UTC)temp
C
wind
direction
speed
KPH
gust
KPH
rain 1hr
cm
rain 24hr
cm
rain mn
cm
humidity
%
barometer
mb
20190420122555 25 57 0.0 6.4 0.00 0.00 0.00 32 1027.3
20190420122041 25 20 0.0 3.2 0.00 0.00 0.00 36 1027.3
20190420121553 25 44 0.0 8.0 0.00 0.00 0.00 32 1027.4
20190420121508 25 40 0.0 8.0 0.00 0.00 0.00 32 1027.2
20190420121103 25 64 0.0 8.0 0.00 0.00 0.00 31 1027.5
20190420120618 26 26 1.6 4.8 0.00 0.00 0.00 34 1027.5
20190420120057 26 18 0.0 4.8 0.00 0.00 0.00 33 1027.5
20190420115547 25 17 0.0 4.8 0.00 0.00 0.00 34 1027.6
20190420115041 25 29 0.0 4.8 0.00 0.00 0.00 35 1027.7
20190420114552 25 13 0.0 8.0 0.00 0.00 0.00 35 1027.7
20190420114056 25 12 0.0 8.0 0.00 0.00 0.00 34 1027.7
20190420113605 25 44 0.0 6.4 0.00 0.00 0.00 36 1027.7
20190420113049 25 32 0.0 6.4 0.00 0.00 0.00 36 1027.8
20190420112558 25 25 0.0 4.8 0.00 0.00 0.00 35 1027.7
20190420112043 25 29 0.0 4.8 0.00 0.00 0.00 35 1028.0
20190420111551 25 30 0.0 4.8 0.00 0.00 0.00 36 1028.0
20190420111510 25 31 0.0 4.8 0.00 0.00 0.00 34 1027.9
20190420111100 25 22 0.0 4.8 0.00 0.00 0.00 36 1028.1
20190420110616 25 27 0.0 4.8 0.00 0.00 0.00 36 1028.2
20190420110101 25 65 0.0 4.8 0.00 0.00 0.00 36 1028.1
20190420105545 25 41 0.0 6.4 0.00 0.00 0.00 39 1028.1
20190420105052 24 35 0.0 4.8 0.00 0.00 0.00 39 1028.2
20190420104600 24 63 0.0 6.4 0.00 0.00 0.00 37 1028.2
20190420104047 24 62 0.0 6.4 0.00 0.00 0.00 38 1028.2
20190420103556 24 58 1.6 4.8 0.00 0.00 0.00 36 1028.2
20190420103044 24 74 1.6 3.2 0.00 0.00 0.00 36 1028.2
20190420102555 24 57 0.0 3.2 0.00 0.00 0.00 36 1028.2
20190420102040 23 38 0.0 4.8 0.00 0.00 0.00 38 1028.2
20190420101551 23 47 0.0 1.6 0.00 0.00 0.00 37 1028.2
20190420101055 23 47 0.0 1.6 0.00 0.00 0.00 39 1028.3
20190420100612 23 57 0.0 1.6 0.00 0.00 0.00 38 1028.4
20190420100051 23 61 0.0 1.6 0.00 0.00 0.00 39 1028.4
20190420100008 23 61 0.0 1.6 0.00 0.00 0.00 39 1028.3
20190420095601 23 63 0.0 1.6 0.00 0.00 0.00 41 1028.4
20190420095048 22 63 0.0 1.6 0.00 0.00 0.00 39 1028.5
20190420094557 22 57 0.0 4.8 0.00 0.00 0.00 44 1028.4
20190420094043 22 51 1.6 4.8 0.00 0.00 0.00 40 1028.5
20190420093552 22 63 0.0 4.8 0.00 0.00 0.00 43 1028.6
20190420093057 22 61 0.0 4.8 0.00 0.00 0.00 41 1028.5
20190420092543 22 54 1.6 4.8 0.00 0.00 0.00 41 1028.6
20190420092110 22 53 0.0 1.6 0.00 0.00 0.00 39 1028.6
20190420091553 22 49 0.0 1.6 0.00 0.00 0.00 41 1028.6
20190420091049 22 48 0.0 1.6 0.00 0.00 0.00 44 1028.6
20190420090610 21 53 0.0 6.4 0.00 0.00 0.00 45 1028.7
20190420090050 21 53 0.0 6.4 0.00 0.00 0.00 43 1028.7
20190420090013 21 52 0.0 6.4 0.00 0.00 0.00 43 1028.5
20190420085600 21 36 0.0 1.6 0.00 0.00 0.00 44 1028.7
20190420085048 21 54 0.0 1.6 0.00 0.00 0.00 44 1028.7
20190420084559 21 50 0.0 1.6 0.00 0.00 0.00 46 1028.7
20190420084049 20 38 0.0 3.2 0.00 0.00 0.00 49 1028.8
20190420083545 20 11 0.0 3.2 0.00 0.00 0.00 51 1028.7
20190420083052 20 51 0.0 1.6 0.00 0.00 0.00 55 1028.8
20190420082543 19 49 0.0 4.8 0.00 0.00 0.00 55 1028.9
20190420082053 19 53 0.0 4.8 0.00 0.00 0.00 57 1028.9
20190420081543 18 21 0.0 1.6 0.00 0.00 0.00 60 1028.9
20190420081053 18 24 0.0 1.6 0.00 0.00 0.00 61 1028.9
20190420080611 18 25 0.0 1.6 0.00 0.00 0.00 60 1029.0
20190420080053 18 42 0.0 1.6 0.00 0.00 0.00 61 1028.9
20190420080011 17 40 0.0 1.6 0.00 0.00 0.00 61 1028.8
20190420075604 17 42 0.0 1.6 0.00 0.00 0.00 62 1029.0
20190420075050 17 45 0.0 1.6 0.00 0.00 0.00 62 1029.0
20190420074542 17 29 0.0 1.6 0.00 0.00 0.00 63 1029.0
20190420074052 17 27 0.0 1.6 0.00 0.00 0.00 64 1028.9
20190420073543 17 22 0.0 1.6 0.00 0.00 0.00 64 1028.9
20190420073051 16 22 0.0 0.0 0.00 0.00 0.00 66 1028.8
20190420073013 16 22 0.0 1.6 0.00 0.00 0.00 66 1028.6
20190420072602 16 22 0.0 1.6 0.00 0.00 0.00 65 1028.9
20190420072048 16 21 0.0 1.6 0.00 0.00 0.00 65 1028.9
20190420071557 16 22 0.0 1.6 0.00 0.00 0.00 65 1029.0
20190420071041 15 22 0.0 1.6 0.00 0.00 0.00 66 1028.9
20190420070623 15 22 0.0 1.6 0.00 0.00 0.00 67 1028.9
20190420070045 15 22 0.0 0.0 0.00 0.00 0.00 68 1028.8
20190420065555 14 22 0.0 0.0 0.00 0.00 0.00 69 1028.8
20190420065043 14 21 0.0 0.0 0.00 0.00 0.00 69 1028.7
20190420064552 13 22 0.0 0.0 0.00 0.00 0.00 70 1028.8
20190420064511 13 21 0.0 1.6 0.00 0.00 0.00 70 1028.6
20190420064103 13 21 0.0 1.6 0.00 0.00 0.00 70 1028.7
20190420063548 13 22 0.0 0.0 0.00 0.00 0.00 71 1028.8
20190420063059 13 22 0.0 1.6 0.00 0.00 0.00 72 1028.7
20190420062549 12 22 0.0 1.6 0.00 0.00 0.00 72 1028.6
20190420062053 12 21 0.0 1.6 0.00 0.00 0.00 72 1028.7
20190420061559 12 22 0.0 1.6 0.00 0.00 0.00 72 1028.6
20190420061045 12 22 0.0 0.0 0.00 0.00 0.00 73 1028.6
20190420060623 12 21 0.0 1.6 0.00 0.00 0.00 73 1028.6
20190420060056 11 22 0.0 1.6 0.00 0.00 0.00 74 1028.5
20190420055546 11 21 0.0 0.0 0.00 0.00 0.00 76 1028.4
20190420055052 11 22 0.0 1.6 0.00 0.00 0.00 73 1028.5
20190420054602 11 21 0.0 1.6 0.00 0.00 0.00 73 1028.6
20190420054047 11 22 0.0 0.0 0.00 0.00 0.00 73 1028.6
20190420053557 11 22 0.0 0.0 0.00 0.00 0.00 73 1028.5
20190420053047 11 21 0.0 1.6 0.00 0.00 0.00 73 1028.5
20190420053002 11 22 0.0 1.6 0.00 0.00 0.00 73 1028.4
20190420052559 11 22 0.0 0.0 0.00 0.00 0.00 73 1028.6
20190420052047 11 22 0.0 0.0 0.00 0.00 0.00 73 1028.4
20190420051555 11 21 0.0 0.0 0.00 0.00 0.00 73 1028.5
20190420051508 10 22 0.0 0.0 0.00 0.00 0.00 73 1028.3
20190420051104 11 22 0.0 0.0 0.00 0.00 0.00 72 1028.4
20190420050619 11 22 0.0 0.0 0.00 0.00 0.00 73 1028.4
20190420050100 11 22 0.0 0.0 0.00 0.00 0.00 73 1028.3
20190420050022 10 21 0.0 0.0 0.00 0.00 0.00 73 1028.2
20190420045610 11 21 0.0 0.0 0.00 0.00 0.00 73 1028.3
20190420044619 10 21 0.0 1.6 0.00 0.00 0.00 72 1028.1
20190420043202 10 21 0.0 1.6 0.00 0.00 0.00 72 1028.0
20190420041625 10 21 0.0 0.0 0.00 0.00 0.00 72 1027.9
20190420040057 10 21 0.0 0.0 0.00 0.00 0.00 72 1027.9
20190420034622 10 21 0.0 0.0 0.00 0.00 0.00 71 1027.9
20190420033112 10 21 0.0 0.0 0.00 0.00 0.00 70 1027.8
20190420031604 10 21 0.0 0.0 0.00 0.00 0.00 70 1027.9
20190420030119 10 21 0.0 0.0 0.00 0.00 0.00 69 1028.0
20190420024616 10 21 0.0 0.0 0.00 0.00 0.00 70 1028.0
20190420023114 10 21 0.0 0.0 0.00 0.00 0.00 69 1027.9
20190420021548 11 21 0.0 0.0 0.00 0.00 0.00 68 1027.9
20190420020108 11 21 0.0 0.0 0.00 0.00 0.00 68 1027.8
20190420014558 11 21 0.0 0.0 0.00 0.00 0.00 67 1027.8
20190420013036 11 21 0.0 0.0 0.00 0.00 0.00 66 1027.8
20190420011545 11 21 0.0 0.0 0.00 0.00 0.00 65 1027.7
20190420010038 12 21 0.0 0.0 0.00 0.00 0.00 63 1027.8
20190420004533 12 21 0.0 0.0 0.00 0.00 0.00 61 1027.8
20190420003036 13 21 0.0 0.0 0.00 0.00 0.00 58 1027.8
20190420001612 13 21 0.0 0.0 0.00 0.00 0.00 57 1027.8
20190420000016 13 21 0.0 0.0 0.00 0.00 0.00 56 1027.9
20190419234543 13 21 0.0 0.0 0.00 0.00 0.00 56 1028.0
20190419233008 14 21 0.0 0.0 0.00 0.00 0.00 56 1028.0
20190419231505 14 21 0.0 0.0 0.00 0.00 0.00 55 1028.0
20190419230007 15 21 0.0 0.0 0.00 0.00 0.00 54 1028.0
20190419224658 15 21 0.0 0.0 0.00 0.00 0.00 53 1028.0
20190419223204 15 21 0.0 0.0 0.00 0.00 0.00 52 1028.0
20190419221621 16 21 0.0 0.0 0.00 0.00 0.00 52 1028.0
20190419220131 16 13 0.0 4.8 0.00 0.00 0.00 50 1028.0
20190419214733 16 14 0.0 4.8 0.00 0.00 0.00 50 1027.9
20190419213208 16 13 0.0 1.6 0.00 0.00 0.00 51 1027.7
20190419211623 16 15 0.0 1.6 0.00 0.00 0.00 50 1027.7
20190419210253 16 17 0.0 0.0 0.00 0.00 0.00 49 1027.6
20190419204636 17 17 0.0 1.6 0.00 0.00 0.00 48 1027.5
20190419203150 17 17 0.0 3.2 0.00 0.00 0.00 47 1027.5
20190419201613 17 18 0.0 1.6 0.00 0.00 0.00 46 1027.4
20190419200119 18 19 0.0 0.0 0.00 0.00 0.00 45 1027.4
20190419194638 18 19 0.0 0.0 0.00 0.00 0.00 43 1027.4
20190419193134 18 18 0.0 1.6 0.00 0.00 0.00 42 1027.3
20190419191628 18 17 0.0 1.6 0.00 0.00 0.00 43 1026.9
20190419190131 19 27 0.0 0.0 0.00 0.00 0.00 41 1026.8
20190419184607 20 27 0.0 0.0 0.00 0.00 0.00 40 1026.8
20190419183109 21 26 0.0 0.0 0.00 0.00 0.00 37 1026.6
20190419181625 22 27 0.0 0.0 0.00 0.00 0.00 34 1026.4
20190419181043 23 26 0.0 0.0 0.00 0.00 0.00 32 1026.4
20190419180622 23 27 0.0 0.0 0.00 0.00 0.00 31 1026.5
20190419180042 23 27 0.0 0.0 0.00 0.00 0.00 30 1026.5
20190419175549 23 26 0.0 1.6 0.00 0.00 0.00 29 1026.4
20190419175103 24 26 0.0 1.6 0.00 0.00 0.00 29 1026.4
20190419174547 24 25 0.0 1.6 0.00 0.00 0.00 28 1026.3
20190419174055 24 25 0.0 1.6 0.00 0.00 0.00 27 1026.2
20190419173602 24 25 0.0 6.4 0.00 0.00 0.00 27 1026.3
20190419173047 25 27 1.6 6.4 0.00 0.00 0.00 26 1026.3
20190419172557 25 56 0.0 1.6 0.00 0.00 0.00 26 1026.2
20190419172041 25 32 0.0 3.2 0.00 0.00 0.00 27 1026.2
20190419171552 25 30 0.0 4.8 0.00 0.00 0.00 26 1026.1
20190419171055 25 37 0.0 8.0 0.00 0.00 0.00 26 1026.2
20190419170613 25 13 1.6 8.0 0.00 0.00 0.00 26 1026.3
20190419170056 25 112 0.0 6.4 0.00 0.00 0.00 27 1026.2
20190419165546 25 171 1.6 8.0 0.00 0.00 0.00 27 1026.1
20190419165051 25 29 0.0 8.0 0.00 0.00 0.00 27 1026.1
20190419164602 25 32 0.0 6.4 0.00 0.00 0.00 27 1026.1
20190419164046 25 37 3.2 8.0 0.00 0.00 0.00 26 1026.1
20190419163553 25 163 0.0 9.7 0.00 0.00 0.00 27 1026.1
20190419163103 25 117 0.0 6.4 0.00 0.00 0.00 27 1026.1
20190419162547 25 27 0.0 8.0 0.00 0.00 0.00 26 1026.1
20190419162052 25 19 0.0 8.0 0.00 0.00 0.00 27 1026.1
20190419161602 25 74 1.6 8.0 0.00 0.00 0.00 27 1026.1
20190419161048 25 48 1.6 8.0 0.00 0.00 0.00 27 1026.1
20190419160628 25 42 1.6 8.0 0.00 0.00 0.00 27 1026.1
20190419160048 25 146 0.0 6.4 0.00 0.00 0.00 27 1026.1
20190419155618 25 63 1.6 8.0 0.00 0.00 0.00 26 1026.1
20190419155049 25 60 1.6 11.3 0.00 0.00 0.00 28 1026.1
20190419154600 25 22 1.6 11.3 0.00 0.00 0.00 27 1026.1
20190419154044 24 18 1.6 11.3 0.00 0.00 0.00 28 1026.1
20190419153554 24 188 0.0 11.3 0.00 0.00 0.00 28 1026.1
20190419153042 24 42 1.6 8.0 0.00 0.00 0.00 27 1026.2
20190419152551 24 59 0.0 8.0 0.00 0.00 0.00 27 1026.2
20190419152103 24 19 1.6 11.3 0.00 0.00 0.00 28 1026.2
20190419151548 24 67 3.2 8.0 0.00 0.00 0.00 29 1026.2
20190419151053 24 32 0.0 6.4 0.00 0.00 0.00 29 1026.2
20190419150630 24 205 0.0 9.7 0.00 0.00 0.00 29 1026.3
20190419150047 24 59 1.6 14.5 0.00 0.00 0.00 29 1026.3
20190419145558 24 21 3.2 14.5 0.00 0.00 0.00 29 1026.4
20190419145043 24 74 0.0 9.7 0.00 0.00 0.00 29 1026.4
20190419144550 24 42 0.0 9.7 0.00 0.00 0.00 31 1026.4
20190419144056 24 213 3.2 9.7 0.00 0.00 0.00 30 1026.5
20190419143552 24 5 0.0 11.3 0.00 0.00 0.00 30 1026.5
20190419143050 24 209 0.0 11.3 0.00 0.00 0.00 30 1026.6
20190419143014 23 217 0.0 11.3 0.00 0.00 0.00 30 1026.4
20190419142600 24 55 3.2 11.3 0.00 0.00 0.00 31 1026.5
20190419142047 24 45 0.0 4.8 0.00 0.00 0.00 31 1026.5
20190419141555 24 296 0.0 12.9 0.00 0.00 0.00 31 1026.6
20190419141521 23 292 0.0 12.9 0.00 0.00 0.00 30 1026.4
20190419141104 24 64 3.2 14.5 0.00 0.00 0.00 30 1026.7
20190419140619 24 267 1.6 9.7 0.00 0.00 0.00 31 1026.6
20190419140102 24 27 0.0 9.7 0.00 0.00 0.00 32 1026.6
20190419135549 24 76 0.0 4.8 0.00 0.00 0.00 32 1026.7
20190419135055 24 44 1.6 9.7 0.00 0.00 0.00 32 1026.7
20190419134547 24 33 0.0 12.9 0.00 0.00 0.00 32 1026.7
20190419134056 24 65 3.2 12.9 0.00 0.00 0.00 31 1026.7
20190419133603 25 30 3.2 9.7 0.00 0.00 0.00 32 1026.8
20190419133047 25 15 1.6 9.7 0.00 0.00 0.00 31 1026.8
20190419132555 25 58 0.0 8.0 0.00 0.00 0.00 32 1026.8
20190419132103 25 17 1.6 12.9 0.00 0.00 0.00 33 1026.8
20190419131548 25 17 1.6 12.9 0.00 0.00 0.00 33 1026.8
20190419131507 24 29 0.0 12.9 0.00 0.00 0.00 32 1026.7
20190419131100 25 286 1.6 9.7 0.00 0.00 0.00 32 1026.8
20190419130616 24 29 1.6 14.5 0.00 0.00 0.00 32 1026.8
20190419130102 24 25 1.6 14.5 0.00 0.00 0.00 32 1026.9
20190419130012 24 40 0.0 14.5 0.00 0.00 0.00 33 1026.8
20190419125607 24 13 1.6 8.0 0.00 0.00 0.00 33 1027.0
20190419125051 24 344 3.2 11.3 0.00 0.00 0.00 33 1027.0
20190419124602 24 221 1.6 11.3 0.00 0.00 0.00 32 1027.1
20190419124046 24 145 0.0 8.0 0.00 0.00 0.00 34 1027.1
20190419123557 24 26 0.0 12.9 0.00 0.00 0.00 33 1027.1
20190419123045 23 34 6.4 17.7 0.00 0.00 0.00 33 1027.1